User: anonymous   Login
Location: Maiden
(35.5760°N, 81.2120°W)
Time: 08:31:20
(UTC-05:00)
Language:

Cosmos 2151 - Orbit

View from above orbital plane
View from above orbital plane
View from above satellite
View from above satellite

Ground track
Ground track

The orbit data is extracted from the following two-line orbital elements,

1 21422U 91042A   14354.19247805  .00000860  00000-0  84965-4 0   968
2 21422 082.5005 031.8869 0016247 093.2329 267.0749 14.90676402272865
Epoch (UTC): 20 December 2014 04:37:10
Eccentricity: 0.0016247
inclination: 82.5005°
perigee height: 584 km
apogee height: 607 km
right ascension of ascending node: 31.8869°
argument of perigee: 93.2329°
revolutions per day: 14.90676402
mean anomaly at epoch: 267.0749°
orbit number at epoch: 27286

The dashed part of the orbit path shows where the satellite is in the earth's shadow,  

DLR